Sioux Falls, SD

10:43 AM CDT on March 27, 2017 (GMT -0500)
Foss

Weather History for KFSD - May, 2014

Change the Weather History Date:

Thursday, May 8, 2014

  Actual Average Record
Temperature  
Mean Temperature 55 °F 56 °F  
Max Temperature 64 °F 68 °F 96 °F (1934)
Min Temperature 45 °F 43 °F 26 °F (1980)
Degree Days  
Heating Degree Days 10 10  
Month to date heating degree days 102 89  
Since 1 July heating degree days 8120 7496  
Cooling Degree Days 0 1  
Month to date cooling degree days 0 4  
Year to date cooling degree days 0 9  
Growing Degree Days 5 (Base 50)    
Moisture  
Dew Point 50 °F    
Average Humidity 83    
Maximum Humidity 93    
Minimum Humidity 72    
Precipitation  
Precipitation 0.05 in 0.11 in 2.26 in (1965)
Month to date precipitation 0.15 0.86  
Year to date precipitation 3.02 6.79  
Snow  
Snow 0.00 in 0.00 in - ()
Month to date snowfall 0.0 0.3  
Since 1 July snowfall 45.3 44.8  
Snow Depth 0.00 in    
Sea Level Pressure  
Sea Level Pressure 29.63 in    
Wind  
Wind Speed 15 mph (North)    
Max Wind Speed 32 mph    
Max Gust Speed 41 mph    
Visibility 9 miles    
Events Rain , Thunderstorm    
T = Trace of Precipitation, MM = Missing Value Source: NWS Daily Summary

Daily Weather History Graph

Daily Weather History Graph

Search for Another Location

Airport or City:

Trip Planner

Search our weather history database for the weather conditions in past years. The results will help you decide how hot, cold, wet, or windy it might be!

Date:

Astronomy

May. 08, 2014 Rise Set
Actual Time 6:10 AM CDT 8:37 PM CDT
Civil Twilight 5:37 AM CDT 9:09 PM CDT
Nautical Twilight 4:57 AM CDT 9:50 PM CDT
Astronomical Twilight 4:12 AM CDT 10:35 PM CDT
Moon 2:28 PM CDT (5/8) 2:53 AM CDT (5/8)
Length of Visible Light 15h 31m
Length of Day
14h 27m
Waxing Gibbous, 65% of the Moon is Illuminated
May 8
Waxing Gibbous
May 14
Full
May 21
Last Quarter
May 28
New
Jun 5
First Quarter

Hourly Weather History & Observations

Time (CDT) Temp. Windchill Dew Point Humidity Pressure Visibility Wind Dir Wind Speed Gust Speed Precip Events Conditions
12:56 AM 55.0 °F - 46.9 °F 74% 29.70 in 10.0 mi North 9.2 mph - N/A   Mostly Cloudy
1:56 AM 54.0 °F - 48.0 °F 80% 29.69 in 10.0 mi North 15.0 mph - 0.00 in   Mostly Cloudy
2:56 AM 53.1 °F - 48.9 °F 86% 29.69 in 10.0 mi North 15.0 mph - N/A   Mostly Cloudy
3:30 AM 52.0 °F - 48.0 °F 86% 29.66 in 7.0 mi ENE 20.7 mph 24.2 mph 0.02 in Rain Light Rain
3:39 AM 52.0 °F - 48.0 °F 86% 29.63 in 10.0 mi NE 16.1 mph - 0.02 in Rain Light Rain
3:56 AM 53.1 °F - 48.9 °F 86% 29.61 in 10.0 mi East 28.8 mph 41.4 mph 0.03 in Rain Light Rain
4:05 AM 53.1 °F - 48.9 °F 86% 29.56 in 10.0 mi ESE 26.5 mph 39.1 mph 0.00 in Rain Light Rain
4:45 AM 53.1 °F - 48.9 °F 86% 29.62 in 10.0 mi North 13.8 mph 24.2 mph 0.00 in   Overcast
4:56 AM 53.1 °F - 48.9 °F 86% 29.65 in 10.0 mi NNW 13.8 mph - N/A   Overcast
5:09 AM 52.0 °F - 48.9 °F 89% 29.65 in 10.0 mi WNW 11.5 mph - N/A Thunderstorm Thunderstorm
5:31 AM 51.1 °F - 48.9 °F 92% 29.69 in 9.0 mi West 11.5 mph - 0.01 in Rain Light Rain
5:40 AM 52.0 °F - 48.0 °F 86% 29.71 in 10.0 mi NW 12.7 mph - 0.01 in Rain Light Rain
5:56 AM 51.1 °F - 48.0 °F 89% 29.71 in 10.0 mi NW 13.8 mph 23.0 mph N/A   Overcast
6:08 AM 51.8 °F - 46.4 °F 82% 29.69 in 10.0 mi NNW 13.8 mph - N/A   Mostly Cloudy
6:56 AM 50.0 °F - 48.0 °F 93% 29.68 in 10.0 mi NNE 15.0 mph 24.2 mph 0.00 in   Overcast
7:56 AM 51.1 °F - 48.0 °F 89% 29.65 in 10.0 mi NE 19.6 mph 25.3 mph N/A   Mostly Cloudy
8:26 AM 51.8 °F - 48.2 °F 88% 29.65 in 9.0 mi ENE 15.0 mph 23.0 mph N/A   Mostly Cloudy
8:56 AM 53.1 °F - 50.0 °F 89% 29.67 in 9.0 mi East 15.0 mph - N/A   Overcast
9:00 AM 53.1 °F - 50.0 °F 89% 29.67 in 8.0 mi East 13.8 mph - N/A   Overcast
9:56 AM 55.0 °F - 52.0 °F 89% 29.65 in 10.0 mi East 13.8 mph - N/A   Overcast
10:33 AM 57.0 °F - 53.1 °F 87% 29.61 in 10.0 mi ENE 17.3 mph - N/A   Mostly Cloudy
10:56 AM 57.0 °F - 53.1 °F 87% 29.62 in 10.0 mi ENE 17.3 mph - N/A   Overcast
11:14 AM 60.1 °F - 54.0 °F 80% 29.61 in 10.0 mi ENE 17.3 mph - N/A   Mostly Cloudy
11:38 AM 59.0 °F - 54.0 °F 83% 29.62 in 10.0 mi East 15.0 mph - N/A   Overcast
11:56 AM 57.9 °F - 53.1 °F 84% 29.61 in 10.0 mi East 17.3 mph - N/A   Overcast
12:56 PM 62.1 °F - 57.0 °F 84% 29.58 in 7.0 mi East 10.4 mph - 0.01 in   Overcast
1:56 PM 63.0 °F - 57.9 °F 84% 29.56 in 7.0 mi NE 6.9 mph - N/A   Overcast
2:56 PM 60.1 °F - 55.0 °F 83% 29.54 in 9.0 mi North 13.8 mph - N/A   Overcast
3:33 PM 61.0 °F - 55.9 °F 83% 29.52 in 9.0 mi North 15.0 mph - 0.00 in Rain , Thunderstorm Light Thunderstorms and Rain
3:56 PM 62.1 °F - 55.0 °F 78% 29.52 in 9.0 mi NE 17.3 mph - 0.00 in Thunderstorm Thunderstorm
4:08 PM 60.1 °F - 55.0 °F 83% 29.52 in 9.0 mi NNE 13.8 mph - N/A   Mostly Cloudy
4:32 PM 60.1 °F - 54.0 °F 80% 29.51 in 9.0 mi North 18.4 mph 24.2 mph N/A   Mostly Cloudy
4:45 PM 59.0 °F - 54.0 °F 83% 29.51 in 10.0 mi North 18.4 mph - N/A   Overcast
4:56 PM 57.0 °F - 52.0 °F 83% 29.51 in 10.0 mi North 16.1 mph - N/A   Mostly Cloudy
5:14 PM 55.9 °F - 52.0 °F 87% 29.53 in 10.0 mi North 17.3 mph - N/A   Overcast
5:56 PM 54.0 °F - 51.1 °F 90% 29.58 in 10.0 mi North 10.4 mph - N/A   Overcast
6:56 PM 53.1 °F - 51.1 °F 93% 29.60 in 9.0 mi NNW 8.1 mph - N/A   Overcast
7:10 PM 53.1 °F - 51.1 °F 93% 29.59 in 2.5 mi WNW 6.9 mph - 0.00 in Rain Light Rain
7:56 PM 52.0 °F - 50.0 °F 93% 29.61 in 7.0 mi WNW 12.7 mph - 0.00 in   Light Drizzle
8:56 PM 50.0 °F - 46.9 °F 89% 29.65 in 10.0 mi WNW 13.8 mph 23.0 mph 0.00 in   Overcast
9:56 PM 48.0 °F - 46.0 °F 93% 29.67 in 10.0 mi WNW 13.8 mph 23.0 mph N/A   Overcast
10:23 PM 48.0 °F - 45.0 °F 89% 29.67 in 10.0 mi NW 18.4 mph 23.0 mph N/A   Overcast
10:56 PM 46.9 °F - 44.1 °F 90% 29.69 in 10.0 mi WNW 13.8 mph 21.9 mph 0.00 in   Light Drizzle
11:24 PM 46.9 °F - 43.0 °F 86% 29.69 in 10.0 mi WNW 11.5 mph 20.7 mph 0.00 in   Overcast
11:48 PM 46.9 °F - 43.0 °F 86% 29.69 in 10.0 mi WNW 13.8 mph 21.9 mph 0.00 in   Overcast
11:56 PM 46.4 °F 39.2 °F 42.8 °F 87% 29.69 in 10.0 mi WNW 18.4 mph 25.3 mph N/A   Overcast